Powrót do katalogu

STARLINK-34904

AktywnyŁącznośćSSO
NORAD 65274·PAYLOAD·🇺🇸 United States

Wystrzelony Aug 22, 2025 z Vandenberg Space Force Base

Loading…

Następne Przeloty (najbliższe 24 godziny)

TLE

ŚwieżeSource: CelesTrak SupGP

Epoka: Sep 15, 2026, 02:35 UTC

1 65274C 25184B   26258.10812500  .00043367  00000+0  13454-2 0  2583
2 65274  97.2835 306.1007 0001120  95.6672 300.1102 15.33437280    10

Śledź STARLINK-34904 w czasie rzeczywistym z AllMySat

Download on the App Store